Mesquite, TX

12:18 PM CDT on July 22, 2017 (GMT -0500)
Mesquite Metro

Weather History for KHQZ - March, 2013

Change the Weather History Date:

Sunday, March 3, 2013

  Actual Average (KDFW) Record (KDFW)
Temperature  
Mean Temperature 49 °F -  
Max Temperature 68 °F 60 °F 94 °F (1902)
Min Temperature 30 °F 41 °F 10 °F (1943)
Degree Days  
Heating Degree Days 16    
Moisture  
Dew Point 28 °F    
Average Humidity 46    
Maximum Humidity 80    
Minimum Humidity 24    
Precipitation  
Precipitation 0.00 in - - ()
Sea Level Pressure  
Sea Level Pressure 30.06 in    
Wind  
Wind Speed 10 mph (SSE)    
Max Wind Speed 24 mph    
Max Gust Speed 31 mph    
Visibility 10 miles    
Events      
Averages and records for this station are not official NWS values.
T = Trace of Precipitation, MM = Missing Value Source: NWS Daily Summary

Daily Weather History Graph

Daily Weather History Graph

Search for Another Location

Airport or City:

Trip Planner

Search our weather history database for the weather conditions in past years. The results will help you decide how hot, cold, wet, or windy it might be!

Date:

Astronomy

Mar. 03, 2013 Rise Set
Actual Time 6:51 AM CST 6:25 PM CST
Civil Twilight 6:26 AM CST 6:49 PM CST
Nautical Twilight 5:57 AM CST 7:18 PM CST
Astronomical Twilight 5:29 AM CST 7:47 PM CST
Moon No Moon Rise 10:28 AM CST (3/3)
Length of Visible Light 12h 23m
Length of Day
11h 34m
Waning Gibbous, 63% of the Moon is Illuminated
Mar 3
Waning Gibbous
Mar 4
Last Quarter
Mar 11
New
Mar 19
First Quarter
Mar 27
Full

Hourly Weather History & Observations

Time (CST) Temp. Windchill Dew Point Humidity Pressure Visibility Wind Dir Wind Speed Gust Speed Precip Events Conditions
12:15 AM 35.6 °F 32.8 °F 24.8 °F 65% 30.25 in 10.0 mi SSE 3.5 mph - N/A   Clear
12:35 AM 33.8 °F 30.8 °F 23.0 °F 65% 30.24 in 10.0 mi SSE 3.5 mph - N/A   Clear
1:15 AM 35.6 °F 30.7 °F 23.0 °F 60% 30.24 in 10.0 mi South 5.8 mph - N/A   Clear
1:35 AM 33.8 °F 30.8 °F 23.0 °F 65% 30.24 in 10.0 mi South 3.5 mph - N/A   Clear
1:55 AM 33.8 °F 30.8 °F 24.8 °F 70% 30.24 in 10.0 mi South 3.5 mph - N/A   Clear
2:15 AM 33.8 °F 30.8 °F 23.0 °F 65% 30.24 in 10.0 mi SSE 3.5 mph - N/A   Clear
2:35 AM 33.8 °F 30.8 °F 26.6 °F 75% 30.24 in 10.0 mi South 3.5 mph - N/A   Clear
2:55 AM 33.8 °F 30.8 °F 26.6 °F 75% 30.23 in 10.0 mi South 3.5 mph - N/A   Clear
3:15 AM 32.0 °F 28.7 °F 24.8 °F 75% 30.22 in 10.0 mi SSE 3.5 mph - N/A   Clear
3:35 AM 32.0 °F 28.7 °F 26.6 °F 80% 30.22 in 10.0 mi SSE 3.5 mph - N/A   Clear
3:55 AM 32.0 °F 28.7 °F 23.0 °F 69% 30.21 in 10.0 mi SSE 3.5 mph - N/A   Clear
4:15 AM 32.0 °F 28.7 °F 23.0 °F 69% 30.21 in 10.0 mi SSE 3.5 mph - N/A   Clear
4:35 AM 32.0 °F 27.5 °F 23.0 °F 69% 30.20 in 10.0 mi SE 4.6 mph - N/A   Clear
4:55 AM 32.0 °F 27.5 °F 23.0 °F 69% 30.20 in 10.0 mi SE 4.6 mph - N/A   Clear
5:15 AM 32.0 °F 27.5 °F 23.0 °F 69% 30.20 in 10.0 mi SSE 4.6 mph - N/A   Clear
5:55 AM 32.0 °F 26.4 °F 24.8 °F 75% 30.21 in 10.0 mi SSE 5.8 mph - N/A   Clear
6:15 AM 30.2 °F 24.3 °F 23.0 °F 75% 30.21 in 10.0 mi SSE 5.8 mph - N/A   Clear
6:35 AM 32.0 °F 26.4 °F 24.8 °F 75% 30.21 in 10.0 mi South 5.8 mph - N/A   Clear
7:15 AM 30.2 °F 24.3 °F 24.8 °F 80% 30.20 in 10.0 mi SSE 5.8 mph - N/A   Clear
7:35 AM 32.0 °F 26.4 °F 26.6 °F 80% 30.20 in 10.0 mi SSE 5.8 mph - N/A   Clear
7:55 AM 33.8 °F 28.6 °F 26.6 °F 75% 30.20 in 10.0 mi South 5.8 mph - N/A   Clear
8:15 AM 35.6 °F 28.6 °F 26.6 °F 70% 30.19 in 10.0 mi South 9.2 mph - N/A   Clear
8:35 AM 39.2 °F 32.5 °F 26.6 °F 61% 30.19 in 10.0 mi South 10.4 mph - N/A   Clear
8:55 AM 44.6 °F 38.4 °F 24.8 °F 46% 30.20 in 10.0 mi South 12.7 mph - N/A   Clear
9:15 AM 46.4 °F 39.8 °F 24.8 °F 43% 30.18 in 10.0 mi SSE 16.1 mph 21.9 mph N/A   Clear
9:35 AM 48.2 °F - 24.8 °F 40% 30.18 in 10.0 mi South 17.3 mph - N/A   Clear
9:55 AM 51.8 °F - 23.0 °F 33% 30.18 in 10.0 mi South 18.4 mph 24.2 mph N/A   Clear
10:15 AM 53.6 °F - 24.8 °F 33% 30.17 in 10.0 mi South 17.3 mph 25.3 mph N/A   Clear
10:35 AM 55.4 °F - 24.8 °F 31% 30.16 in 10.0 mi South 23.0 mph 26.5 mph N/A   Clear
10:55 AM 55.4 °F - 24.8 °F 31% 30.15 in 10.0 mi South 20.7 mph 26.5 mph N/A   Clear
11:15 AM 59.0 °F - 26.6 °F 29% 30.14 in 10.0 mi South 17.3 mph 25.3 mph N/A   Clear
11:35 AM 59.0 °F - 26.6 °F 29% 30.12 in 10.0 mi SSE 20.7 mph - N/A   Clear
11:55 AM 60.8 °F - 26.6 °F 27% 30.11 in 10.0 mi SSW 16.1 mph 21.9 mph N/A   Clear
12:15 PM 62.6 °F - 26.6 °F 26% 30.09 in 10.0 mi South 16.1 mph 25.3 mph N/A   Clear
12:35 PM 62.6 °F - 28.4 °F 27% 30.07 in 10.0 mi South 17.3 mph 24.2 mph N/A   Clear
12:55 PM 64.4 °F - 28.4 °F 26% 30.07 in 10.0 mi SSW 18.4 mph 24.2 mph N/A   Clear
1:15 PM 64.4 °F - 28.4 °F 26% 30.05 in 10.0 mi South 16.1 mph 24.2 mph N/A   Clear
1:35 PM 64.4 °F - 28.4 °F 26% 30.03 in 10.0 mi South 15.0 mph - N/A   Clear
2:15 PM 66.2 °F - 28.4 °F 24% 30.00 in 10.0 mi South 13.8 mph 23.0 mph N/A   Clear
2:35 PM 66.2 °F - 28.4 °F 24% 29.99 in 10.0 mi South 20.7 mph 25.3 mph N/A   Clear
2:55 PM 66.2 °F - 28.4 °F 24% 29.97 in 10.0 mi South 18.4 mph 27.6 mph N/A   Clear
3:15 PM 68.0 °F - 30.2 °F 24% 29.96 in 10.0 mi South 19.6 mph 27.6 mph N/A   Clear
3:35 PM 68.0 °F - 30.2 °F 24% 29.95 in 10.0 mi South 20.7 mph 26.5 mph N/A   Clear
3:55 PM 68.0 °F - 30.2 °F 24% 29.94 in 10.0 mi South 20.7 mph 26.5 mph N/A   Clear
4:15 PM 68.0 °F - 30.2 °F 24% 29.92 in 10.0 mi South 21.9 mph 27.6 mph N/A   Clear
4:55 PM 68.0 °F - 32.0 °F 26% 29.91 in 10.0 mi South 19.6 mph 28.8 mph N/A   Clear
5:15 PM 68.0 °F - 32.0 °F 26% 29.91 in 10.0 mi South 19.6 mph 28.8 mph N/A   Clear
5:35 PM 68.0 °F - 32.0 °F 26% 29.91 in 10.0 mi South 24.2 mph 28.8 mph N/A   Clear
5:55 PM 66.2 °F - 32.0 °F 28% 29.90 in 10.0 mi South 19.6 mph 31.1 mph N/A   Clear
6:15 PM 64.4 °F - 32.0 °F 30% 29.90 in 10.0 mi SSE 18.4 mph 23.0 mph N/A   Clear
6:35 PM 62.6 °F - 32.0 °F 32% 29.89 in 10.0 mi SSE 15.0 mph 20.7 mph N/A   Clear
6:55 PM 62.6 °F - 32.0 °F 32% 29.88 in 10.0 mi SSE 15.0 mph - N/A   Clear
7:15 PM 60.8 °F - 32.0 °F 34% 29.87 in 10.0 mi SSE 17.3 mph 20.7 mph N/A   Clear
7:35 PM 60.8 °F - 32.0 °F 34% 29.86 in 10.0 mi SSE 16.1 mph - N/A   Clear
8:15 PM 60.8 °F - 32.0 °F 34% 29.86 in 10.0 mi SSE 18.4 mph 24.2 mph N/A   Clear
8:35 PM 60.8 °F - 33.8 °F 36% 29.85 in 10.0 mi SSE 18.4 mph 25.3 mph N/A   Clear
8:55 PM 60.8 °F - 33.8 °F 36% 29.85 in 10.0 mi SSE 17.3 mph 21.9 mph N/A   Clear
9:15 PM 60.8 °F - 33.8 °F 36% 29.86 in 10.0 mi SSE 13.8 mph 21.9 mph N/A   Clear
9:35 PM 59.0 °F - 33.8 °F 39% 29.86 in 10.0 mi SSE 15.0 mph 26.5 mph N/A   Clear
9:55 PM 59.0 °F - 35.6 °F 42% 29.86 in 10.0 mi SSE 16.1 mph 21.9 mph N/A   Clear
10:15 PM 59.0 °F - 35.6 °F 42% 29.85 in 10.0 mi SSE 15.0 mph - N/A   Clear
10:35 PM 59.0 °F - 37.4 °F 45% 29.85 in 10.0 mi South 16.1 mph 20.7 mph N/A   Clear
10:55 PM 59.0 °F - 39.2 °F 48% 29.85 in 10.0 mi SSE 15.0 mph - N/A   Clear
11:15 PM 59.0 °F - 41.0 °F 51% 29.85 in 10.0 mi SSE 15.0 mph 25.3 mph N/A   Clear
11:35 PM 59.0 °F - 41.0 °F 51% 29.84 in 10.0 mi South 18.4 mph 25.3 mph N/A   Clear